Volver al catálogo

CZ-6A DEB

ActivoSSO
NORAD 54356·DEBRIS·🇨🇳 China

Lanzado Nov 11, 2022 desde Taiyuan Satellite Launch Center

Loading…

Próximos Pases (próximas 24 horas)

TLE

ActualizadoSource: Space-Track

Época: Sep 14, 2026, 02:42 UTC

1 54356U 22151DB  26257.11255271  .00002314  00000-0  78223-3 0  9995
2 54356  98.8664 317.8557 0066761 206.1805 153.6000 14.36610357199820

Sigue CZ-6A DEB en tiempo real con AllMySat

Download on the App Store